星链-36221(STARLINK-36221)

导读 | 豆包AI

STARLINK-36221是美国SpaceX公司星链(Starlink)星座的卫星,于2025年12月17日发射升空,部署在近地轨道。星链星座旨在为全球提供高速低延迟宽带互联网服务,尤其覆盖传统基础设施匮乏的偏远地区。作为星链组网的组成部分,该卫星承担着增强星座网络覆盖与容量的任务,助力SpaceX推进全球卫星互联网布局,目前整个星链星座在轨卫星规模已超万颗。

基本信息
目录编号:
67215
目录名称:
STARLINK-36221
国际标识:
2025-304Z
轨道中心:
EARTH
卫星名称:
星链-36221
卫星全名:
星链-36221(STARLINK-36221)
卫星状态:
在轨 (已飞行87 天)
发射日期:
2025-12-17 UTC
国别 :
美国 (US)
星等 :
--
轨道信息
数据来源 国际轨道数据
星历时间: 2026-03-13T15:25:22+0800
19小时前
查看轨道信息
半长轴: 6949.266km
偏心率: 0.0004739
轨道倾角: 70.004°
近地点辐角 256.002°
升交点赤经 165.458°
平近点角 104.061°
近地点: 567.835km
远地点: 574.423km
周期: 96.088分钟
每日圈数: 14.986301
详细信息
固有亮度:
5
最大亮度:
2.5
卫星平台:
Starlink V1.0
覆盖范围:
全球
运营商:
太空探索技术公司
运营商所在国:
美国
制造商(研发单位):
太空探索技术公司
制造商所在国:
美国
使用方式:
暂无
卫星简介
Starlink 计划是 SpaceX 推出的全球卫星互联网项目,通过发射低轨道卫星,为全球尤其是偏远地区提供高速、低延迟的互联网服务。自 2019 年起,Starlink 已部署数千颗卫星,旨在缩小全球数字鸿沟,推动互联网普及。该项目还为军事、航空等行业提供通信支持,带来广泛经济效益。
2D轨道图
3D轨道图
轨道高度分析图
轨道倾角分析图
轨道综合分析图
查看轨道综合分析图